{"data":{"norad_id":43256,"intl_designator":"2018-030H","name":"IRIDIUM 142","alt_names":[],"object_type":"PAYLOAD","status":"ACTIVE","operator":null,"country":"US","launch_date":"2018-03-30","launch_site_code":"AFWTR","launch_vehicle":null,"mission":null,"orbit_class":"UNKNOWN","rcs_meters":null,"size_class":null,"mass_kg":null,"dimensions":null,"purposes":["comms"],"wikipedia_slug":null,"has_3d_model":false,"image_url":null,"decayed_at":null,"tle_current":{"epoch":"2026-09-20T04:54:35.147808Z","epoch_age_seconds":41073,"freshness":"FRESH","line1":"1 43256U 18030H   26263.20457347  .00000011  00000+0 -29609-5 0  9996","line2":"2 43256  86.3912 250.5994 0002010  88.6635 271.4791 14.34217465443755","mean_motion":14.34217465,"eccentricity":0.000201,"inclination_deg":86.3912,"raan_deg":250.5994,"arg_perigee_deg":88.6635,"mean_anomaly_deg":271.4791,"bstar":-2.9609e-6,"rev_number":44375,"period_min":100.40318397601,"perigee_km":776.22978550323,"apogee_km":779.10641915436,"semimajor_km":7155.8051023288,"source":"CELESTRAK","updated_at":"2026-09-20T09:00:36.330036Z"}}}